Location: West Cummington
(42.4920°N, 72.9680°W)
Time: 08:02:16
(UTC-04:00)

Cosmos 1703 Rocket - Visible Passes

Search period start: 04 May 2015 00:00
Search period end: 14 May 2015 00:00
Orbit: 606 x 635 km, 82.5° (Epoch: 03 May)

Date Brightness Start Highest point End Pass type
(mag) Time Alt. Az. Time Alt. Az. Time Alt. Az.
04 May 6.9 04:16:08 10° NE 04:18:06 13° ENE 04:20:17 10° E visible
05 May 6.3 04:32:46 10° NNE 04:36:16 23° ENE 04:39:52 10° SE visible
06 May 5.1 04:50:06 10° N 04:54:18 41° ENE 04:58:33 10° SSE visible
08 May 6.6 03:49:19 10° NE 03:51:40 14° ENE 03:54:12 10° ESE visible
09 May 6.0 04:06:08 10° NNE 04:09:48 25° ENE 04:13:34 10° SE visible
10 May 4.8 04:23:32 10° N 04:27:49 46° ENE 04:32:08 10° SSE visible
11 May 3.7 04:41:14 10° N 04:45:43 87° E 04:50:12 10° S visible
12 May 6.5 03:22:33 10° NNE 03:25:13 16° ENE 03:28:03 10° ESE visible
12 May 3.9 04:59:11 10° NNW 05:03:31 49° W 05:07:49 10° SSW visible
13 May 5.7 03:39:31 10° NNE 03:43:20 28° ENE 03:47:14 10° SE visible
